| time (UTC) | temp F | wind direction | speed MPH | gust MPH | rain 1hr in | rain 24hr in | rain mn in | humidity % | barometer mb |
| 20260831151548 | 72 | 171 | 2.0 | 5.0 | 0.00 | 0.04 | 0.03 | 93 | 1008.3 |
| 20260831150047 | 72 | 182 | 3.0 | 6.0 | 0.00 | 0.04 | 0.03 | 93 | 1008.2 |
| 20260831144556 | 72 | 166 | 4.0 | 7.0 | 0.00 | 0.04 | 0.03 | 94 | 1008.0 |
| 20260831143109 | 71 | 163 | 3.0 | 6.0 | 0.00 | 0.04 | 0.03 | 95 | 1007.7 |
| 20260831141613 | 71 | 130 | 4.0 | 7.0 | 0.00 | 0.04 | 0.03 | 97 | 1007.5 |
| 20260831140056 | 70 | 132 | 3.0 | 7.0 | 0.00 | 0.04 | 0.03 | 98 | 1007.5 |
| 20260831134545 | 70 | 117 | 3.0 | 6.0 | 0.00 | 0.04 | 0.03 | 98 | 1007.7 |
| 20260831133054 | 69 | 9 | 1.0 | 4.0 | 0.00 | 0.04 | 0.03 | 97 | 1007.9 |
| 20260831131554 | 70 | 9 | 0.0 | 0.0 | 0.00 | 0.04 | 0.03 | 98 | 1007.7 |
| 20260831130054 | 70 | 0 | 0.0 | 3.0 | 0.00 | 0.04 | 0.03 | 99 | 1007.5 |
| 20260831124608 | 69 | 92 | 3.0 | 6.0 | 0.00 | 0.04 | 0.03 | 99 | 1007.3 |
| 20260831123056 | 69 | 32 | 2.0 | 5.0 | 0.00 | 0.04 | 0.03 | 99 | 1007.7 |
| 20260831121549 | 69 | 12 | 3.0 | 5.0 | 0.00 | 0.04 | 0.03 | 99 | 1007.8 |
| 20260831120051 | 69 | 136 | 2.0 | 4.0 | 0.00 | 0.04 | 0.03 | 98 | 1007.6 |
| 20260831114557 | 69 | 92 | 3.0 | 4.0 | 0.00 | 0.04 | 0.03 | 99 | 1007.5 |
| 20260831113056 | 69 | 0 | 0.0 | 4.0 | 0.00 | 0.04 | 0.03 | 99 | 1007.5 |
| 20260831111550 | 69 | 88 | 2.0 | 3.0 | 0.00 | 0.04 | 0.03 | 98 | 1007.3 |
| 20260831110045 | 69 | 55 | 1.0 | 5.0 | 0.00 | 0.04 | 0.03 | 98 | 1007.7 |
| 20260831104544 | 69 | 352 | 2.0 | 4.0 | 0.00 | 0.04 | 0.03 | 98 | 1007.9 |
| 20260831103058 | 69 | 74 | 1.0 | 6.0 | 0.00 | 0.04 | 0.03 | 98 | 1007.5 |
| 20260831101612 | 69 | 91 | 3.0 | 4.0 | 0.00 | 0.04 | 0.03 | 98 | 1007.7 |
| 20260831100057 | 69 | 111 | 2.0 | 4.0 | 0.00 | 0.04 | 0.03 | 98 | 1007.9 |
| 20260831094556 | 69 | 74 | 2.0 | 4.0 | 0.00 | 0.04 | 0.03 | 98 | 1008.0 |
| 20260831093054 | 69 | 74 | 1.0 | 5.0 | 0.00 | 0.04 | 0.03 | 98 | 1008.0 |
| 20260831091549 | 69 | 73 | 3.0 | 6.0 | 0.00 | 0.04 | 0.03 | 98 | 1008.1 |
| 20260831090103 | 69 | 72 | 2.0 | 6.0 | 0.00 | 0.04 | 0.03 | 98 | 1007.9 |
| 20260831084556 | 69 | 89 | 3.0 | 6.0 | 0.00 | 0.04 | 0.03 | 98 | 1007.7 |
| 20260831083052 | 69 | 79 | 3.0 | 6.0 | 0.00 | 0.04 | 0.03 | 98 | 1007.8 |
| 20260831081551 | 69 | 107 | 3.0 | 6.0 | 0.00 | 0.04 | 0.03 | 98 | 1007.7 |
| 20260831080047 | 69 | 109 | 5.0 | 10.0 | 0.00 | 0.04 | 0.03 | 98 | 1008.1 |
| 20260831074558 | 68 | 130 | 4.0 | 9.0 | 0.00 | 0.04 | 0.03 | 99 | 1008.1 |
| 20260831073049 | 68 | 105 | 5.0 | 9.0 | 0.01 | 0.04 | 0.03 | 98 | 1008.3 |
| 20260831071545 | 68 | 103 | 4.0 | 8.0 | 0.02 | 0.04 | 0.03 | 98 | 1008.8 |
| 20260831070059 | 68 | 92 | 4.0 | 9.0 | 0.03 | 0.04 | 0.03 | 98 | 1009.1 |
| 20260831064556 | 68 | 99 | 6.0 | 8.0 | 0.03 | 0.04 | 0.03 | 97 | 1009.5 |
| 20260831063047 | 68 | 55 | 4.0 | 11.0 | 0.01 | 0.02 | 0.01 | 96 | 1010.1 |
| 20260831061558 | 69 | 47 | 3.0 | 6.0 | 0.01 | 0.02 | 0.01 | 96 | 1010.4 |
| 20260831060106 | 69 | 43 | 2.0 | 6.0 | 0.00 | 0.01 | 0.00 | 95 | 1010.2 |
| 20260831054554 | 69 | 87 | 2.0 | 4.0 | 0.00 | 0.01 | 0.00 | 95 | 1010.2 |
| 20260831053046 | 69 | 87 | 2.0 | 5.0 | 0.00 | 0.01 | 0.00 | 95 | 1010.0 |
| 20260831051604 | 68 | 88 | 2.0 | 6.0 | 0.00 | 0.01 | 0.00 | 95 | 1010.1 |
| 20260831050103 | 69 | 55 | 3.0 | 8.0 | 0.00 | 0.01 | 0.00 | 95 | 1010.5 |
| 20260831044548 | 69 | 59 | 4.0 | 10.0 | 0.00 | 0.01 | 0.01 | 94 | 1010.6 |
| 20260831043057 | 69 | 49 | 3.0 | 9.0 | 0.00 | 0.01 | 0.01 | 93 | 1010.6 |
| 20260831041551 | 70 | 67 | 2.0 | 5.0 | 0.00 | 0.01 | 0.01 | 93 | 1010.7 |
| 20260831040058 | 69 | 63 | 6.0 | 10.0 | 0.00 | 0.01 | 0.01 | 93 | 1010.9 |
| 20260831034555 | 69 | 82 | 6.0 | 9.0 | 0.00 | 0.01 | 0.01 | 93 | 1011.0 |
| 20260831033055 | 69 | 115 | 4.0 | 12.0 | 0.00 | 0.01 | 0.01 | 94 | 1011.1 |
| 20260831031559 | 69 | 82 | 8.0 | 12.0 | 0.00 | 0.01 | 0.01 | 94 | 1010.7 |
| 20260831030111 | 69 | 101 | 7.0 | 11.0 | 0.00 | 0.01 | 0.01 | 94 | 1011.0 |
| 20260831024636 | 69 | 105 | 6.0 | 13.0 | 0.00 | 0.01 | 0.01 | 94 | 1010.9 |
| 20260831023052 | 69 | 119 | 7.0 | 12.0 | 0.00 | 0.01 | 0.01 | 94 | 1010.9 |
| 20260831021544 | 69 | 117 | 7.0 | 14.0 | 0.00 | 0.01 | 0.01 | 94 | 1010.9 |
| 20260831020059 | 68 | 105 | 4.0 | 10.0 | 0.00 | 0.01 | 0.01 | 94 | 1010.8 |
| 20260831014554 | 68 | 102 | 6.0 | 11.0 | 0.00 | 0.01 | 0.01 | 95 | 1010.8 |
| 20260831013109 | 67 | 67 | 2.0 | 11.0 | 0.00 | 0.01 | 0.01 | 95 | 1011.0 |
| 20260831011550 | 67 | 39 | 4.0 | 9.0 | 0.00 | 0.01 | 0.01 | 94 | 1011.0 |
| 20260831010100 | 68 | 38 | 3.0 | 7.0 | 0.00 | 0.01 | 0.01 | 94 | 1011.1 |
| 20260831004557 | 68 | 53 | 5.0 | 9.0 | 0.00 | 0.01 | 0.01 | 94 | 1011.0 |
| 20260831003051 | 68 | 28 | 5.0 | 14.0 | 0.00 | 0.01 | 0.01 | 94 | 1011.0 |
| 20260831001546 | 68 | 43 | 6.0 | 10.0 | 0.00 | 0.01 | 0.01 | 94 | 1011.0 |
| 20260831000045 | 68 | 69 | 5.0 | 9.0 | 0.00 | 0.01 | 0.01 | 93 | 1011.1 |
| 20260830234609 | 68 | 11 | 3.0 | 7.0 | 0.00 | 0.01 | 0.01 | 94 | 1011.4 |
| 20260830233048 | 68 | 50 | 4.0 | 9.0 | 0.00 | 0.01 | 0.01 | 94 | 1011.3 |
| 20260830231600 | 68 | 30 | 4.0 | 10.0 | 0.00 | 0.01 | 0.01 | 94 | 1011.2 |
| 20260830230045 | 68 | 13 | 6.0 | 11.0 | 0.00 | 0.01 | 0.01 | 93 | 1011.1 |
| 20260830224555 | 69 | 5 | 5.0 | 11.0 | 0.00 | 0.01 | 0.01 | 93 | 1011.2 |
| 20260830223048 | 69 | 18 | 4.0 | 11.0 | 0.00 | 0.01 | 0.01 | 92 | 1011.2 |
| 20260830221556 | 70 | 30 | 5.0 | 12.0 | 0.00 | 0.01 | 0.01 | 91 | 1011.2 |
| 20260830220057 | 70 | 69 | 2.0 | 14.0 | 0.00 | 0.01 | 0.01 | 90 | 1011.4 |
| 20260830214549 | 69 | 34 | 5.0 | 12.0 | 0.00 | 0.01 | 0.01 | 91 | 1011.4 |
| 20260830213050 | 69 | 52 | 5.0 | 12.0 | 0.00 | 0.01 | 0.01 | 91 | 1011.5 |
| 20260830211551 | 69 | 78 | 4.0 | 13.0 | 0.00 | 0.01 | 0.01 | 91 | 1011.6 |
| 20260830210058 | 69 | 47 | 4.0 | 11.0 | 0.00 | 0.01 | 0.01 | 92 | 1011.9 |
| 20260830204557 | 68 | 58 | 7.0 | 14.0 | 0.00 | 0.01 | 0.01 | 93 | 1011.7 |
| 20260830203113 | 69 | 58 | 6.0 | 18.0 | 0.00 | 0.01 | 0.01 | 92 | 1011.8 |
| 20260830201613 | 69 | 36 | 7.0 | 14.0 | 0.00 | 0.01 | 0.01 | 90 | 1011.7 |
| 20260830200056 | 69 | 55 | 6.0 | 14.0 | 0.00 | 0.01 | 0.01 | 91 | 1011.8 |
| 20260830194555 | 69 | 78 | 8.0 | 15.0 | 0.00 | 0.01 | 0.01 | 91 | 1011.8 |
| 20260830193107 | 68 | 88 | 8.0 | 17.0 | 0.00 | 0.01 | 0.01 | 92 | 1011.7 |
| 20260830191601 | 67 | 91 | 6.0 | 17.0 | 0.00 | 0.01 | 0.01 | 94 | 1011.6 |
| 20260830190058 | 66 | 82 | 6.0 | 12.0 | 0.00 | 0.01 | 0.01 | 95 | 1011.8 |
| 20260830184551 | 67 | 48 | 7.0 | 13.0 | 0.00 | 0.01 | 0.01 | 94 | 1012.1 |
| 20260830183101 | 67 | 84 | 7.0 | 14.0 | 0.00 | 0.01 | 0.01 | 94 | 1012.0 |
| 20260830181611 | 67 | 111 | 8.0 | 12.0 | 0.00 | 0.01 | 0.01 | 94 | 1012.0 |
| 20260830180058 | 67 | 69 | 4.0 | 11.0 | 0.00 | 0.01 | 0.01 | 95 | 1012.1 |
| 20260830174605 | 67 | 42 | 3.0 | 11.0 | 0.01 | 0.01 | 0.01 | 96 | 1012.2 |
| 20260830173110 | 67 | 72 | 6.0 | 12.0 | 0.01 | 0.01 | 0.01 | 97 | 1011.6 |
| 20260830171614 | 66 | 59 | 2.0 | 7.0 | 0.01 | 0.01 | 0.01 | 96 | 1012.2 |
| 20260830170059 | 66 | 52 | 4.0 | 10.0 | 0.01 | 0.01 | 0.01 | 95 | 1012.3 |
| 20260830164609 | 66 | 63 | 4.0 | 8.0 | 0.00 | 0.00 | 0.00 | 95 | 1012.7 |
| 20260830163059 | 67 | 63 | 3.0 | 9.0 | 0.00 | 0.00 | 0.00 | 94 | 1012.7 |
| 20260830161558 | 67 | 38 | 3.0 | 6.0 | 0.00 | 0.00 | 0.00 | 94 | 1013.1 |
| 20260830160057 | 67 | 69 | 2.0 | 7.0 | 0.00 | 0.00 | 0.00 | 94 | 1012.9 |
| 20260830154552 | 67 | 91 | 4.0 | 14.0 | 0.00 | 0.01 | 0.00 | 94 | 1012.2 |
| 20260830153050 | 67 | 78 | 5.0 | 13.0 | 0.00 | 0.01 | 0.00 | 95 | 1012.0 |